Time,TemperatureF,DewpointF,PressureIn,WindDirection,WindDirectionDegrees,WindSpeedMPH,WindSpeedGustMPH,Humidity,HourlyPrecipIn,Conditions,Clouds,dailyrainin,SoftwareType,DateUTC
2013-03-02 00:05:00,25.9,19.0,30.26,NNW,327,6.0,-999.0,76,-99.99,,,0.00,weatherlink.com 1.10,2013-03-02 06:05:00,
2013-03-02 00:20:00,25.9,19.0,30.26,NW,315,5.0,-999.0,76,-99.99,,,0.00,weatherlink.com 1.10,2013-03-02 06:20:00,
2013-03-02 00:35:00,25.7,19.0,30.26,NNW,329,8.0,-999.0,77,-99.99,,,0.00,weatherlink.com 1.10,2013-03-02 06:35:00,
2013-03-02 00:50:00,25.7,20.0,30.26,NW,313,9.0,-999.0,78,-99.99,,,0.00,weatherlink.com 1.10,2013-03-02 06:50:00,
2013-03-02 01:05:00,25.7,20.0,30.26,NW,306,8.0,-999.0,78,-99.99,,,0.00,weatherlink.com 1.10,2013-03-02 07:05:00,
2013-03-02 01:20:00,25.6,20.0,30.26,NW,321,6.0,-999.0,79,-99.99,,,0.00,weatherlink.com 1.10,2013-03-02 07:20:00,
2013-03-02 01:35:00,25.2,20.0,30.27,NW,304,12.0,-999.0,79,-99.99,,,0.00,weatherlink.com 1.10,2013-03-02 07:35:00,
2013-03-02 01:50:00,25.0,20.0,30.26,WNW,298,5.0,-999.0,80,-99.99,,,0.00,weatherlink.com 1.10,2013-03-02 07:50:00,
2013-03-02 02:05:00,24.8,20.0,30.26,WNW,302,8.0,-999.0,81,-99.99,,,0.00,weatherlink.com 1.10,2013-03-02 08:05:00,
2013-03-02 02:20:00,24.9,20.0,30.26,WNW,302,8.0,-999.0,81,-99.99,,,0.00,weatherlink.com 1.10,2013-03-02 08:20:00,
2013-03-02 02:35:00,24.7,20.0,30.26,NW,304,7.0,-999.0,81,-99.99,,,0.00,weatherlink.com 1.10,2013-03-02 08:35:00,
2013-03-02 02:50:00,24.6,20.0,30.25,NW,310,7.0,-999.0,81,-99.99,,,0.00,weatherlink.com 1.10,2013-03-02 08:50:00,
2013-03-02 03:05:00,24.5,20.0,30.25,NW,306,7.0,-999.0,82,-99.99,,,0.00,weatherlink.com 1.10,2013-03-02 09:05:00,
2013-03-02 03:20:00,24.4,20.0,30.25,NW,304,6.0,-999.0,82,-99.99,,,0.00,weatherlink.com 1.10,2013-03-02 09:20:00,
2013-03-02 03:35:00,24.3,20.0,30.25,WNW,296,7.0,-999.0,82,-99.99,,,0.00,weatherlink.com 1.10,2013-03-02 09:35:00,
2013-03-02 03:50:00,24.7,20.0,30.25,WNW,299,8.0,-999.0,82,-99.99,,,0.00,weatherlink.com 1.10,2013-03-02 09:50:00,
2013-03-02 04:05:00,24.8,20.0,30.26,NW,311,4.0,-999.0,82,-99.99,,,0.00,weatherlink.com 1.10,2013-03-02 10:05:00,
2013-03-02 04:20:00,25.0,20.0,30.26,NW,306,5.0,-999.0,82,-99.99,,,0.00,weatherlink.com 1.10,2013-03-02 10:20:00,
2013-03-02 04:35:00,24.9,20.0,30.26,WNW,301,9.0,-999.0,82,-99.99,,,0.00,weatherlink.com 1.10,2013-03-02 10:35:00,
2013-03-02 04:50:00,24.9,20.0,30.26,WNW,290,7.0,-999.0,82,-99.99,,,0.00,weatherlink.com 1.10,2013-03-02 10:50:00,
2013-03-02 05:05:00,24.9,20.0,30.26,NW,309,6.0,-999.0,82,-99.99,,,0.00,weatherlink.com 1.10,2013-03-02 11:05:00,
2013-03-02 05:20:00,25.0,20.0,30.26,WNW,296,0.0,-999.0,82,-99.99,,,0.00,weatherlink.com 1.10,2013-03-02 11:20:00,
2013-03-02 05:35:00,25.1,20.0,30.26,NW,305,9.0,-999.0,82,-99.99,,,0.00,weatherlink.com 1.10,2013-03-02 11:35:00,
2013-03-02 05:50:00,25.2,20.0,30.27,WNW,296,0.0,-999.0,82,-99.99,,,0.00,weatherlink.com 1.10,2013-03-02 11:50:00,
2013-03-02 06:05:00,25.2,20.0,30.27,NW,309,11.0,-999.0,82,-99.99,,,0.00,weatherlink.com 1.10,2013-03-02 12:05:00,
2013-03-02 06:20:00,25.3,21.0,30.27,WNW,302,8.0,-999.0,82,-99.99,,,0.00,weatherlink.com 1.10,2013-03-02 12:20:00,
2013-03-02 06:35:00,25.4,21.0,30.29,NNW,338,6.0,-999.0,82,-99.99,,,0.00,weatherlink.com 1.10,2013-03-02 12:35:00,
2013-03-02 06:50:00,25.6,20.0,30.28,NNW,340,7.0,-999.0,80,-99.99,,,0.00,weatherlink.com 1.10,2013-03-02 12:50:00,
2013-03-02 07:05:00,25.8,20.0,30.30,NNW,330,9.0,-999.0,79,-99.99,,,0.00,weatherlink.com 1.10,2013-03-02 13:05:00,
2013-03-02 07:20:00,25.9,20.0,30.30,NNW,333,7.0,-999.0,79,-99.99,,,0.00,weatherlink.com 1.10,2013-03-02 13:20:00,
2013-03-02 07:35:00,25.9,20.0,30.30,NNW,327,6.0,-999.0,79,-99.99,,,0.00,weatherlink.com 1.10,2013-03-02 13:35:00,
2013-03-02 07:50:00,26.0,20.0,30.31,NNW,330,6.0,-999.0,79,-99.99,,,0.00,weatherlink.com 1.10,2013-03-02 13:50:00,
2013-03-02 08:05:00,26.1,20.0,30.31,North,355,9.0,-999.0,78,-99.99,,,0.00,weatherlink.com 1.10,2013-03-02 14:05:00,
2013-03-02 08:20:00,26.3,20.0,30.31,NNW,337,6.0,-999.0,78,-99.99,,,0.00,weatherlink.com 1.10,2013-03-02 14:20:00,
2013-03-02 08:35:00,26.5,20.0,30.32,NNE,17,5.0,-999.0,77,-99.99,,,0.00,weatherlink.com 1.10,2013-03-02 14:35:00,
2013-03-02 08:50:00,26.6,20.0,30.32,NW,325,6.0,-999.0,76,-99.99,,,0.00,weatherlink.com 1.10,2013-03-02 14:50:00,
2013-03-02 09:05:00,26.5,20.0,30.33,North,5,3.0,-999.0,76,-99.99,,,0.00,weatherlink.com 1.10,2013-03-02 15:05:00,
2013-03-02 09:20:00,27.0,20.0,30.33,North,351,8.0,-999.0,75,-99.99,,,0.00,weatherlink.com 1.10,2013-03-02 15:20:00,
2013-03-02 09:35:00,27.2,20.0,30.33,North,349,6.0,-999.0,73,-99.99,,,0.00,weatherlink.com 1.10,2013-03-02 15:35:00,
2013-03-02 09:50:00,27.2,19.0,30.34,NW,318,7.0,-999.0,72,-99.99,,,0.00,weatherlink.com 1.10,2013-03-02 15:50:00,
2013-03-02 10:05:00,27.5,19.0,30.33,WNW,300,0.0,-999.0,71,-99.99,,,0.00,weatherlink.com 1.10,2013-03-02 16:05:00,
2013-03-02 10:20:00,27.8,20.0,30.34,NNW,329,6.0,-999.0,71,-99.99,,,0.00,weatherlink.com 1.10,2013-03-02 16:20:00,
2013-03-02 10:35:00,28.4,20.0,30.34,NW,312,0.0,-999.0,71,-99.99,,,0.00,weatherlink.com 1.10,2013-03-02 16:35:00,
2013-03-02 10:50:00,28.4,20.0,30.33,WNW,290,1.0,-999.0,71,-99.99,,,0.00,weatherlink.com 1.10,2013-03-02 16:50:00,
2013-03-02 11:05:00,28.3,20.0,30.33,WNW,301,0.0,-999.0,71,-99.99,,,0.00,weatherlink.com 1.10,2013-03-02 17:05:00,
2013-03-02 11:20:00,29.5,21.0,30.33,North,5,0.0,-999.0,70,-99.99,,,0.00,weatherlink.com 1.10,2013-03-02 17:20:00,
2013-03-02 11:35:00,30.0,21.0,30.33,WNW,296,7.0,-999.0,69,-99.99,,,0.00,weatherlink.com 1.10,2013-03-02 17:35:00,
2013-03-02 11:50:00,29.9,20.0,30.33,NW,314,0.0,-999.0,68,-99.99,,,0.00,weatherlink.com 1.10,2013-03-02 17:50:00,
2013-03-02 12:05:00,30.3,20.0,30.33,NW,321,0.0,-999.0,67,-99.99,,,0.00,weatherlink.com 1.10,2013-03-02 18:05:00,
2013-03-02 12:20:00,30.2,20.0,30.33,NW,321,4.0,-999.0,66,-99.99,,,0.00,weatherlink.com 1.10,2013-03-02 18:20:00,
2013-03-02 12:35:00,31.6,21.0,30.32,WNW,298,5.0,-999.0,64,-99.99,,,0.00,weatherlink.com 1.10,2013-03-02 18:35:00,
2013-03-02 12:50:00,31.2,21.0,30.31,NW,309,0.0,-999.0,66,-99.99,,,0.00,weatherlink.com 1.10,2013-03-02 18:50:00,
2013-03-02 13:05:00,32.5,21.0,30.31,NNW,346,6.0,-999.0,63,-99.99,,,0.00,weatherlink.com 1.10,2013-03-02 19:05:00,
2013-03-02 13:20:00,32.2,21.0,30.30,NNW,331,9.0,-999.0,63,-99.99,,,0.00,weatherlink.com 1.10,2013-03-02 19:20:00,
2013-03-02 13:35:00,32.6,21.0,30.29,NNW,335,7.0,-999.0,62,-99.99,,,0.00,weatherlink.com 1.10,2013-03-02 19:35:00,
2013-03-02 13:50:00,32.7,22.0,30.29,NW,323,0.0,-999.0,64,-99.99,,,0.00,weatherlink.com 1.10,2013-03-02 19:50:00,
2013-03-02 14:05:00,33.4,22.0,30.28,WNW,292,4.0,-999.0,62,-99.99,,,0.00,weatherlink.com 1.10,2013-03-02 20:05:00,
2013-03-02 14:20:00,34.5,22.0,30.28,WNW,283,0.0,-999.0,61,-99.99,,,0.00,weatherlink.com 1.10,2013-03-02 20:20:00,
2013-03-02 14:35:00,34.4,22.0,30.29,NW,309,6.0,-999.0,61,-99.99,,,0.00,weatherlink.com 1.10,2013-03-02 20:35:00,
2013-03-02 14:50:00,35.0,21.0,30.28,NNW,339,6.0,-999.0,56,-99.99,,,0.00,weatherlink.com 1.10,2013-03-02 20:50:00,
2013-03-02 15:05:00,35.4,21.0,30.28,NNW,333,0.0,-999.0,57,-99.99,,,0.00,weatherlink.com 1.10,2013-03-02 21:05:00,
2013-03-02 15:20:00,35.1,20.0,30.28,NW,320,2.0,-999.0,55,-99.99,,,0.00,weatherlink.com 1.10,2013-03-02 21:20:00,
2013-03-02 15:35:00,35.6,21.0,30.27,NW,324,0.0,-999.0,55,-99.99,,,0.00,weatherlink.com 1.10,2013-03-02 21:35:00,
2013-03-02 15:50:00,35.9,21.0,30.28,NW,319,8.0,-999.0,55,-99.99,,,0.00,weatherlink.com 1.10,2013-03-02 21:50:00,
2013-03-02 16:05:00,35.9,20.0,30.27,NNW,328,5.0,-999.0,53,-99.99,,,0.00,weatherlink.com 1.10,2013-03-02 22:05:00,
2013-03-02 16:20:00,37.0,19.0,30.27,WNW,291,7.0,-999.0,49,-99.99,,,0.00,weatherlink.com 1.10,2013-03-02 22:20:00,
2013-03-02 16:35:00,36.7,19.0,30.27,NW,318,5.0,-999.0,48,-99.99,,,0.00,weatherlink.com 1.10,2013-03-02 22:35:00,
2013-03-02 16:50:00,36.5,19.0,30.27,NW,325,8.0,-999.0,49,-99.99,,,0.00,weatherlink.com 1.10,2013-03-02 22:50:00,
2013-03-02 17:05:00,36.4,19.0,30.27,NW,319,8.0,-999.0,49,-99.99,,,0.00,weatherlink.com 1.10,2013-03-02 23:05:00,
2013-03-02 17:20:00,36.2,19.0,30.28,NW,304,1.0,-999.0,50,-99.99,,,0.00,weatherlink.com 1.10,2013-03-02 23:20:00,
2013-03-02 17:35:00,36.3,19.0,30.28,WNW,298,5.0,-999.0,50,-99.99,,,0.00,weatherlink.com 1.10,2013-03-02 23:35:00,
2013-03-02 17:50:00,36.1,18.0,30.28,NW,311,8.0,-999.0,48,-99.99,,,0.00,weatherlink.com 1.10,2013-03-02 23:50:00,
2013-03-02 18:05:00,35.6,18.0,30.28,NNW,335,7.0,-999.0,49,-99.99,,,0.00,weatherlink.com 1.10,2013-03-03 00:05:00,
2013-03-02 18:20:00,35.3,18.0,30.28,NW,317,0.0,-999.0,50,-99.99,,,0.00,weatherlink.com 1.10,2013-03-03 00:20:00,
2013-03-02 18:35:00,35.2,19.0,30.29,NW,308,0.0,-999.0,51,-99.99,,,0.00,weatherlink.com 1.10,2013-03-03 00:35:00,
2013-03-02 18:50:00,34.8,19.0,30.29,NW,310,1.0,-999.0,52,-99.99,,,0.00,weatherlink.com 1.10,2013-03-03 00:50:00,
2013-03-02 19:05:00,34.6,18.0,30.29,NW,317,4.0,-999.0,51,-99.99,,,0.00,weatherlink.com 1.10,2013-03-03 01:05:00,
2013-03-02 19:20:00,34.3,17.0,30.30,NW,320,6.0,-999.0,50,-99.99,,,0.00,weatherlink.com 1.10,2013-03-03 01:20:00,
2013-03-02 19:35:00,34.0,16.0,30.30,NW,321,8.0,-999.0,48,-99.99,,,0.00,weatherlink.com 1.10,2013-03-03 01:35:00,
2013-03-02 19:50:00,33.8,15.0,30.29,NNW,327,4.0,-999.0,47,-99.99,,,0.00,weatherlink.com 1.10,2013-03-03 01:50:00,
2013-03-02 20:05:00,33.5,15.0,30.29,NNW,327,9.0,-999.0,47,-99.99,,,0.00,weatherlink.com 1.10,2013-03-03 02:05:00,
2013-03-02 20:20:00,33.4,15.0,30.30,NNW,332,5.0,-999.0,47,-99.99,,,0.00,weatherlink.com 1.10,2013-03-03 02:20:00,
2013-03-02 20:35:00,33.2,15.0,30.29,NNW,347,0.0,-999.0,48,-99.99,,,0.00,weatherlink.com 1.10,2013-03-03 02:35:00,
2013-03-02 20:50:00,32.9,15.0,30.30,NNW,347,0.0,-999.0,49,-99.99,,,0.00,weatherlink.com 1.10,2013-03-03 02:50:00,
2013-03-02 21:05:00,32.6,16.0,30.30,NNW,347,1.0,-999.0,50,-99.99,,,0.00,weatherlink.com 1.10,2013-03-03 03:05:00,
2013-03-02 21:20:00,32.6,16.0,30.30,NNW,347,6.0,-999.0,50,-99.99,,,0.00,weatherlink.com 1.10,2013-03-03 03:20:00,
2013-03-02 21:35:00,32.5,16.0,30.30,NNW,347,1.0,-999.0,50,-99.99,,,0.00,weatherlink.com 1.10,2013-03-03 03:35:00,
2013-03-02 21:50:00,32.1,16.0,30.30,NNW,347,0.0,-999.0,51,-99.99,,,0.00,weatherlink.com 1.10,2013-03-03 03:50:00,
2013-03-02 22:05:00,31.8,16.0,30.30,NNW,347,0.0,-999.0,52,-99.99,,,0.00,weatherlink.com 1.10,2013-03-03 04:05:00,
2013-03-02 22:20:00,31.9,16.0,30.30,NNW,347,2.0,-999.0,53,-99.99,,,0.00,weatherlink.com 1.10,2013-03-03 04:20:00,
2013-03-02 22:35:00,31.7,16.0,30.29,NNW,344,1.0,-999.0,53,-99.99,,,0.00,weatherlink.com 1.10,2013-03-03 04:35:00,
2013-03-02 22:50:00,31.6,17.0,30.29,NNW,343,1.0,-999.0,54,-99.99,,,0.00,weatherlink.com 1.10,2013-03-03 04:50:00,
2013-03-02 23:05:00,31.5,17.0,30.29,NNW,341,1.0,-999.0,55,-99.99,,,0.00,weatherlink.com 1.10,2013-03-03 05:05:00,
2013-03-02 23:20:00,31.5,17.0,30.29,NNW,341,2.0,-999.0,55,-99.99,,,0.00,weatherlink.com 1.10,2013-03-03 05:20:00,
2013-03-02 23:35:00,31.4,17.0,30.27,NNW,341,0.0,-999.0,55,-99.99,,,0.00,weatherlink.com 1.10,2013-03-03 05:35:00,
2013-03-02 23:50:00,31.3,17.0,30.26,NNW,341,0.0,-999.0,56,-99.99,,,0.00,weatherlink.com 1.10,2013-03-03 05:50:00,